Vorticity
36 19 17 7 19 6 7 5 7 5 9 3 16 5 3 16 16 -3 23 -10 9 8
13 16 20 11 17 14 14 9 7 4 5 7 17 11 12 8 18 11 2 -6 12 -0
24 23 11 25 13 11 17 14 6 1 8 13 19 14 5 11 -1 -20 11 14 8 7
19 18 15 12 24 20 8 11 12 8 8 10 11 12 14 -3 17 13 7 23 2 11
19 9 16 17 17 19 8 13 8 6 5 10 6 2 15 21 -28 28 0 48 -0 3
19 10 14 18 17 15 14 9 2 9 17 15 8 14 18 8 43 -10 13 9 8 8
18 11 19 19 16 10 6 9 14 14 10 4 9 12 -2 14 -2 13 15 8 3 3
16 18 16 12 16 8 11 7 3 5 11 17 7 12 7 22 22 13 7 6 3 2
26 18 8 15 14 8 14 2 34 11 13 3 5 -3 22 0 29 9 10 5 1 2
21 22 22 14 11 4 25 10 16 13 6 14 28 30 22 30 8 3 3 2 8 10
30 5 26 7 21 -3 19 18 12 13 24 34 8 27 10 5 3 4 6 10 9 9
18 23 0 5 7 14 2 16 42 33 32 19 9 5 2 4 8 9 9 10 7 7
46 48 23 -2 18 21 50 32 10 5 7 2 3 7 8 8 9 7 5 6 7 8
22 18 16 18 10 9 6 4 5 6 8 7 7 8 7 6 6 6 6 6 6 6
Height
3043 3047 3050 3054 3057 3061 3064 3068 3072 3075 3077 3079 3080 3081 3082 3082 3081 3082 3083 3082 3082 3082
3035 3036 3039 3043 3047 3050 3054 3057 3062 3064 3067 3069 3071 3072 3073 3074 3073 3075 3075 3073 3074 3073
3024 3026 3028 3031 3036 3040 3044 3048 3052 3056 3058 3059 3062 3063 3064 3065 3065 3061 3065 3064 3063 3064
3016 3016 3018 3022 3025 3030 3035 3039 3044 3047 3049 3050 3052 3054 3055 3055 3055 3054 3053 3051 3051 3053
3007 3008 3008 3012 3015 3019 3025 3030 3033 3037 3038 3040 3042 3044 3045 3044 3042 3044 3042 3042 3042 3044
2999 3000 3000 3003 3006 3011 3016 3021 3024 3027 3029 3031 3034 3035 3035 3035 3035 3032 3036 3035 3036 3037
2989 2991 2993 2996 2999 3004 3009 3013 3017 3019 3021 3023 3025 3027 3026 3029 3025 3025 3028 3027 3026 3028
2982 2984 2987 2990 2993 2998 3003 3006 3009 3011 3013 3015 3017 3017 3017 3019 3016 3018 3019 3019 3019 3021
2975 2978 2981 2984 2988 2993 2996 2998 3001 3004 3007 3009 3008 3009 3008 3011 3011 3012 3013 3013 3013 3011
2970 2973 2976 2980 2983 2985 2989 2993 2995 2999 3002 3000 3005 3000 3003 3002 3007 3007 3007 3006 3004 3000
2965 2968 2970 2972 2977 2983 2985 2990 2992 2993 2997 2996 2998 3001 3002 3002 3001 3000 3000 2998 2995 2992
2962 2964 2969 2971 2975 2978 2984 2986 2987 2986 2992 2992 2995 2998 2998 2998 2996 2994 2994 2991 2987 2983
2964 2966 2969 2971 2975 2978 2978 2985 2986 2987 2992 2992 2993 2994 2994 2991 2989 2988 2985 2981 2978 2974
2963 2967 2971 2974 2977 2980 2983 2985 2987 2989 2990 2989 2990 2991 2987 2986 2984 2981 2979 2975 2970 2964